This demonstration page uses our WeatherBlox Daily Observations layout. Learn more.

Left ArrowRight Arrow

Hourly Observations for March 9, 2021

Temp ( °F °C ) Dew Point ( °F °C ) Humidity (%) Winds ( mph kmh ) Pressure ( in mb ) Visibility ( mi km ) Precip ( " mm )
12:53 am 00:53 Cloudy 30 -1.1 29 -1.7 96 96 W 3 6 29.97 1015 10 16.0934 0 0
1:53 am 01:53 Cloudy 30 -1.1 29 -1.7 96 96 WSW 6 9 29.98 1015 10 16.0934 0 0
2:53 am 02:53 Cloudy 30 -1.1 29 -1.7 96 96 Calm 29.95 1014 10 16.0934 0 0
3:53 am 03:53 Cloudy 31 -0.6 29 -1.7 92 92 SW 6 9 29.95 1014 10 16.0934 0 0
4:53 am 04:53 Cloudy 31 -0.6 29 -1.7 92 92 SSW 7 11 29.97 1015 10 16.0934 0 0
5:53 am 05:53 Cloudy 31 -0.6 29 -1.7 92 92 SW 9 15 29.98 1015 10 16.0934 0 0
6:53 am 06:53 Cloudy 30 -1.1 28 -2.2 92 92 W 8 13 30.02 1017 10 16.0934 0 0
7:21 am 07:21 Cloudy with Mist and Fog 30 -1.1 27 -2.8 88 88 WNW 9 15 30.06 1018 6 9.65604 0 0
7:30 am 07:30 Cloudy with Mist and Fog 30 -1.1 27 -2.8 88 88 WNW 7 11 30.06 1018 6 9.65604 0 0
7:37 am 07:37 Cloudy with Mist and Fog 30 -1.1 27 -2.8 88 88 WNW 9 15 30.06 1018 6 9.65604 0 0
7:53 am 07:53 Cloudy with Mist and Fog 30 -1.1 27 -2.8 88 88 NW 12 19 30.04 1017 5 8.0467 0 0
8:05 am 08:05 Cloudy with Mist and Fog 30 -1.1 27 -2.8 88 88 WNW 13 20 30.07 1018 6 9.65604 0 0
8:53 am 08:53 Cloudy 30 -1.1 26 -3.3 85 85 WNW 9 15 30.06 1018 8 12.87472 0 0
9:46 am 09:46 Cloudy with Mist and Fog 30 -1.1 27 -2.8 88 88 WNW 12 19 30.1 1019 6 9.65604 0 0
9:53 am 09:53 Cloudy 30 -1.1 26 -3.3 85 85 WNW 12 19 30.07 1018 7 11.26538 0 0
10:53 am 10:53 Cloudy 30 -1.1 26 -3.3 85 85 WNW 13 20 30.08 1019 7 11.26538 0 0
11:50 am 11:50 Cloudy 30 -1 27 -3 86 86 WNW 13 20 30.11 1020 8 12.87472 0 0
11:53 am 11:53 Cloudy 31 -0.6 26 -3.3 82 82 WNW 12 19 30.08 1019 8 12.87472 0 0
12:53 pm 12:53 Cloudy 32 0 26 -3.3 79 79 W 9 15 30.07 1018 8 12.87472 0 0
1:53 pm 13:53 Mostly Cloudy 34 1.1 27 -2.8 76 76 W 9 15 30.05 1018 8 12.87472 0 0
2:53 pm 14:53 Partly Cloudy 37 2.8 29 -1.7 73 73 WSW 10 17 30.03 1017 10 16.0934 0 0
3:29 pm 15:29 Mostly Cloudy 37 2.8 28 -2.2 70 70 SW 15 24 30.03 1017 10 16.0934 0 0
3:41 pm 15:41 Partly Cloudy 37 2.8 29 -1.7 73 73 SW 16 26 30.03 1017 10 16.0934 0 0
3:53 pm 15:53 Mostly Sunny 37 2.8 29 -1.7 73 73 SSW 15 24 30.03 1017 10 16.0934 0 0
4:53 pm 16:53 Sunny 35 1.7 28 -2.2 76 76 SW 15 24 30.02 1017 10 16.0934 0 0
5:53 pm 17:53 Sunny 33 0.6 27 -2.8 78 78 SW 10 17 30.02 1017 10 16.0934 0 0
6:53 pm 18:53 Clear 30 -1.1 26 -3.3 85 85 SSW 8 13 30.02 1017 10 16.0934 0 0
7:53 pm 19:53 Clear 28 -2.2 24 -4.4 85 85 S 9 15 30.01 1016 10 16.0934 0 0
8:53 pm 20:53 Clear 27 -2.8 21 -6.1 78 78 S 10 17 30 1016 10 16.0934 0 0
9:53 pm 21:53 Clear 26 -3.3 20 -6.7 78 78 SSE 3 6 29.99 1016 10 16.0934 0 0
10:53 pm 22:53 Clear 25 -3.9 19 -7.2 78 78 ESE 3 6 29.98 1015 10 16.0934 0 0
11:53 pm 23:53 Clear 24 -4.4 17 -8.3 75 75 S 5 7 29.96 1014 10 16.0934 0 0

Powered by AerisWeather